Torna al catalogo

STARLINK-36392

AttivoComunicazioniSSO
NORAD 68115·PAYLOAD·🇺🇸 United States

Lanciato Mar 8, 2026 da Vandenberg Space Force Base

Loading…

Prossimi Passaggi (prossime 24 ore)

TLE

AggiornatoSource: CelesTrak SupGP

Epoca: Sep 14, 2026, 23:14 UTC

1 68115C 26044Q   26257.96854167 -.00054619  00000+0 -16957-2 0  2578
2 68115  97.2849 217.0076 0001735  89.4967 164.9023 15.33463438    10

Traccia STARLINK-36392 in tempo reale con AllMySat

Download on the App Store